[Iaude] MPEC J70: 2024 JM1 [a=1.28,e=0.37,i=1.5,H=25.6]
    mpec at cfa.harvard.edu 
    mpec at cfa.harvard.edu
       
    Sat May  4 19:31:58 EDT 2024
    
    
  
M.P.E.C. 2024-J70                                   Issued 2024 May 4, 23:30 UT
     The Minor Planet Electronic Circulars contain information on unusual
         minor planets, routine data on comets and natural satellites,
         and occasional editorial announcements.  They are published
    on behalf of Division F of the International Astronomical Union by the
          Minor Planet Center, Smithsonian Astrophysical Observatory,
                          Cambridge, MA 02138, U.S.A.
			  
             Prepared using the Tamkin Foundation Computer Network
                              MPC at CFA.HARVARD.EDU
            URL https://www.minorplanetcenter.net/    ISSN 1523-6714
                                    2024 JM1                                    
Observations:
     K24J01M*1C2024 05 02.35170914 06 58.255+18 55 49.37         20.50GVEJ070G96
     K24J01M 1C2024 05 02.35690614 06 57.056+18 57 02.34         20.32GVEJ070G96
     K24J01M 1C2024 05 02.36209514 06 55.883+18 58 14.95         20.36GVEJ070G96
     K24J01M 1C2024 05 02.36728614 06 54.709+18 59 27.82         20.00GVEJ070G96
     K24J01M mC2024 05 02.46664114 06 33.444+19 22 46.96         20.70GVEJ070I52
     K24J01M mC2024 05 02.46707614 06 33.340+19 22 53.15         20.53GVEJ070I52
     K24J01M mC2024 05 02.46750214 06 33.289+19 22 58.84         20.27GVEJ070I52
     K24J01M mC2024 05 02.46793514 06 33.138+19 23 05.57         20.52GVEJ070I52
     K24J01M KC2024 05 02.93599314 05 20.15 +21 21 07.6          20.5 GXEJ070I93
     K24J01M KC2024 05 02.93949214 05 19.28 +21 22 03.6          20.5 GXEJ070I93
     K24J01M KC2024 05 02.94297914 05 18.39 +21 22 59.0          20.2 GXEJ070I93
     K24J01M KC2024 05 02.94638614 05 17.51 +21 23 53.6          20.2 GXEJ070I93
     K24J01M KB2024 05 02.96503314 05 12.90 +21 28 54.2          19.9 GXEJ070958
     K24J01M KB2024 05 02.97053814 05 11.55 +21 30 22.0          19.8 GXEJ070958
     K24J01M KB2024 05 02.97600114 05 10.18 +21 31 48.4                XEJ070958
     K24J01M 1C2024 05 03.02074 14 04 57.19 +21 43 20.5          20.2 VXEJ070033
     K24J01M 1C2024 05 03.02152 14 04 57.00 +21 43 32.9          20.6 VXEJ070033
     K24J01M 1C2024 05 03.02231 14 04 56.78 +21 43 46.3          20.3 VXEJ070033
     K24J01M 1C2024 05 03.02309 14 04 56.61 +21 43 58.2          20.5 VXEJ070033
     K24J01M KC2024 05 03.17853314 04 35.58 +22 27 13.9          20.2 GXEJ070858
     K24J01M KC2024 05 03.18540714 04 33.73 +22 29 09.9          20.3 GXEJ070858
     K24J01M KC2024 05 03.19241014 04 31.84 +22 31 08.0          20.4 GXEJ070858
     K24J01M !C2024 05 03.40492 14 03 34.08 +23 31 32.2          20.4 GVEJ070673
     K24J01M !C2024 05 03.40753 14 03 33.34 +23 32 17.2          20.6 GVEJ070673
     K24J01M !C2024 05 03.40978 14 03 32.72 +23 32 55.8          20.5 GVEJ070673
     K24J01M !C2024 05 04.28954 14 00 00.75 +28 14 01.7          20.3 GVEJ070673
     K24J01M !C2024 05 04.29698 13 59 57.98 +28 16 37.5                VEJ070673
     K24J01M KB2024 05 04.82355 13 57 19.28 +31 30 25.1          20.0 GXEJ070M45
     K24J01M KB2024 05 04.82811 13 57 17.42 +31 32 13.4                XEJ070M45
     K24J01M 1C2024 05 04.84780 13 57 11.46 +31 39 33.0          20.8 VXEJ070033
     K24J01M 1C2024 05 04.84847 13 57 11.19 +31 39 48.7          20.4 VXEJ070033
     K24J01M 1C2024 05 04.84913 13 57 10.93 +31 40 04.1          20.4 VXEJ070033
     K24J01M 1C2024 05 04.84979 13 57 10.65 +31 40 19.9          20.0 VXEJ070033
     K24J01M 1C2024 05 04.86962 13 57 02.54 +31 48 11.9          20.7 VXEJ070033
     K24J01M 1C2024 05 04.87028 13 57 02.26 +31 48 27.8          20.2 VXEJ070033
     K24J01M 1C2024 05 04.87094 13 57 01.99 +31 48 43.4          20.5 VXEJ070033
     K24J01M 1C2024 05 04.87161 13 57 01.71 +31 48 59.2          20.4 VXEJ070033
Observer details:
033 Karl Schwarzschild Observatory, Tautenburg.  Observers S. Melnikov, C.
    Hogner, F. Ludwig, M. Hartmann, B. Stecklum.  Measurer B. Stecklum.
    1.34-m f/3 Schmidt + CCD.
673 Table Mountain Observatory, Wrightwood.  Observer J. Pittichova.  1.0-m
    f/15 reflector + CCD.
858 Tebbutt Observatory, Edgewood.  Observer F. B. Zoltowski.  0.51-m f/8.1
    Schmidt-Cassegrain + CCD.
958 Observatoire de Dax.  Observer P. Dupouy.  0.50-m f/4.5 Reflector + CMO.
G96 Mt. Lemmon Survey.  Observer H. Groeller.  Measurers T. Beuden, V. F.
    Carvajal, D. Fay, J. B. Fazekas, D. C. Fuls, A. R. Gibbs, A. D. Grauer, H.
    Groeller, J. K. Hogan, R. A. Kowalski, S. M. Larson, G. J. Leonard, D.
    Rankin, R. L. Seaman, F. C. Shelly, K. W. Wierzchos.  1.5-m reflector +
    10K CCD.
I52 Steward Observatory, Mt. Lemmon Station.  Observers V. F. Carvajal, G. J.
    Leonard.  Measurers T. Beuden, V. F. Carvajal, D. Fay, J. B. Fazekas, D.
    C. Fuls, A. R. Gibbs, A. D. Grauer, H. Groeller, J. K. Hogan, R. A.
    Kowalski, S. M. Larson, G. J. Leonard, D. Rankin, R. L. Seaman, F. C.
    Shelly, K. W. Wierzchos.  1.0-m prime focus + CCD.
I93 St Pardon de Conques.  Observer F. Losse.  0.40-m f/3.7 reflector + CCD.
M45 Starhopper Observatory, Sfantu Gheorghe.  Observer F. Ursache.  0.41-m
    f/7.5 reflector + CMO.
Orbital elements:
2024 JM1                                                 Earth MOID = 0.0167 AU
Epoch 2024 Mar. 31.0 TT = JDT 2460400.5                 Veres                   
M 295.46827              (2000.0)            P               Q                  
n   0.68190630     Peri.  146.28705     +0.55222005     +0.83363695             
a   1.2783592      Node   157.22735     -0.77056069     +0.51499639             
e   0.3718021      Incl.    1.49843     -0.31825971     +0.19956993             
P   1.45           H   25.65          G   0.15           U   8                  
Residuals in seconds of arc
240502 G96  0.1+  0.0     240502 958  0.4+  0.2+    240504 673  0.1-  0.3-
240502 G96  0.1-  0.1+    240502 958  0.9+  0.8-    240504 M45  0.0   0.6-
240502 G96  0.1-  0.0     240503 033  0.0   0.2-    240504 M45  0.3+  0.1-
240502 G96  0.1-  0.1+    240503 033  0.1+  0.3-    240504 033  0.1+  0.2+
240502 I52  0.2+  0.1-    240503 033  0.3-  0.5+    240504 033  0.2+  0.0
240502 I52  0.0   0.1-    240503 033  0.0   0.1-    240504 033  0.2+  0.3-
240502 I52  0.5+  0.4-    240503 858  0.1+  0.1+    240504 033  0.1+  0.2-
240502 I52  0.5-  0.2+    240503 858  0.1-  0.2+    240504 033  0.1+  0.1+
240502 I93  0.1+  0.3-    240503 858  0.2-  0.1+    240504 033  0.1+  0.2+
240502 I93  0.2+  0.0     240503 673  0.1-  0.2+    240504 033  0.1+  0.1+
240502 I93  0.1+  0.2-    240503 673  0.2-  0.3+    240504 033  0.0   0.1-
240502 I93  0.2-  0.0     240503 673  0.2-  0.2+
240502 958  0.4-  0.4+    240504 673  0.0   0.0
Ephemeris:
2024 JM1                 a,e,i = 1.28, 0.37, 1                   q = 0.8031
Date    TT    R. A. (2000) Decl.     Delta      r    Elong.  Phase     V
2024 04 04    14 20 57.7 -08 36 04   0.2338  1.2200   158.0    17.9    23.9
...
2024 04 19    14 20 49.7 -02 53 38   0.1280  1.1300   168.4    10.3    22.1
...
2024 04 27    14 16 01.7 +05 22 07   0.07888 1.0813   160.8    17.8    21.2
...
2024 05 03    14 05 05.6 +21 39 12   0.04647 1.0449   141.7    36.8    20.6
2024 05 04    14 01 19.6 +26 36 06   0.04183 1.0389   136.2    42.2    20.5
2024 05 05    13 56 12.5 +32 41 15   0.03759 1.0329   129.5    48.9    20.4
...
2024 05 11    05 59 45.7 +79 07 35   0.03005 0.9973    64.2   114.2    22.5
...
2024 05 19    02 49 44.7 +39 20 23   0.06540 0.9517    22.8   155.7    29.3
...
2024 06 03    02 43 10.7 +24 14 15   0.1596  0.8764    27.9   147.2    29.3
M. P. C. Staff               (C) Copyright 2024 MPC           M.P.E.C. 2024-J70
    
    
More information about the Iaude
mailing list